Torna al catalogo

ATLAS 5 CENTAUR R/B

AttivoHEO
NORAD 40375·ROCKET BODY·🇺🇸 United States

Lanciato Jan 21, 2015 da Cape Canaveral Space Force Station

Loading…

Prossimi Passaggi (prossime 24 ore)

TLE

AggiornatoSource: Space-Track

Epoca: Sep 14, 2026, 10:45 UTC

1 40375U 15002B   26257.44846208 -.00000063  00000-0  00000-0 0  9995
2 40375  18.7774 275.3421 6085286 153.9162 257.0705  2.08934098 88927

Traccia ATLAS 5 CENTAUR R/B in tempo reale con AllMySat

Download on the App Store